Terminal Aerodrome Forecast
Issued by NWS

Home | Current Version | Previous Version | Text Only | Print | Product List | Glossary On
Versions: 1 2 3 4 5 6 7 8 9 10 11 12 13 14 15 16 17 18 19 20 21 22 23 24 25 26 27 28 29 30 31 32 33 34 35 36 37 38 39 40 41 42 43 44 45 46 47 48 49
000
FTAK31 PANC 300522
TAFADL
TAF
PADL 300522Z 3006/3106 20007KT P6SM VCFG SCT040 BKN120
     FM301200 VRB04KT 4SM BR SCT040 BKN070
     FM301800 18008KT P6SM SCT020 BKN050
      AMD LTD TO CLD VIS AND WIND 3007/3016=

USA.gov is the U.S. government's official web portal to all federal, state and local government web resources and services.